| time (UTC) | temp C | wind direction | speed KPH | gust KPH | rain 1hr cm | rain 24hr cm | rain mn cm | humidity % | barometer mb |
| 20260504050016 | 18 | 295 | 11.3 | 22.5 | 0.00 | 0.00 | 0.00 | 63 | 1013.3 |
| 20260504044515 | 18 | 310 | 9.7 | 25.7 | 0.00 | 0.00 | 0.00 | 63 | 1013.3 |
| 20260504043015 | 18 | 304 | 14.5 | 24.1 | 0.00 | 0.00 | 0.00 | 63 | 1013.3 |
| 20260504041514 | 18 | 288 | 14.5 | 24.1 | 0.00 | 0.00 | 0.00 | 63 | 1013.2 |
| 20260504040014 | 18 | 326 | 11.3 | 22.5 | 0.00 | 0.00 | 0.00 | 65 | 1013.3 |
| 20260504034521 | 18 | 289 | 16.1 | 22.5 | 0.00 | 0.00 | 0.00 | 64 | 1013.3 |
| 20260504033013 | 18 | 323 | 12.9 | 24.1 | 0.00 | 0.00 | 0.00 | 65 | 1013.5 |
| 20260504031513 | 18 | 308 | 16.1 | 27.4 | 0.00 | 0.00 | 0.00 | 63 | 1013.5 |
| 20260504030012 | 19 | 286 | 14.5 | 25.7 | 0.00 | 0.00 | 0.00 | 63 | 1013.7 |
| 20260504024510 | 19 | 296 | 14.5 | 27.4 | 0.00 | 0.00 | 0.00 | 63 | 1013.9 |
| 20260504023007 | 18 | 296 | 17.7 | 29.0 | 0.00 | 0.00 | 0.00 | 64 | 1014.1 |
| 20260504021505 | 18 | 309 | 12.9 | 27.4 | 0.00 | 0.00 | 0.00 | 65 | 1014.3 |
| 20260504020004 | 18 | 298 | 16.1 | 30.6 | 0.00 | 0.00 | 0.00 | 65 | 1014.5 |
| 20260504014601 | 17 | 311 | 17.7 | 30.6 | 0.00 | 0.00 | 0.00 | 65 | 1014.5 |
| 20260504013105 | 17 | 311 | 12.9 | 25.7 | 0.00 | 0.00 | 0.00 | 67 | 1014.6 |
| 20260504011557 | 17 | 300 | 16.1 | 27.4 | 0.00 | 0.00 | 0.00 | 67 | 1014.6 |
| 20260504010057 | 17 | 259 | 16.1 | 24.1 | 0.00 | 0.00 | 0.00 | 67 | 1014.5 |
| 20260504004647 | 16 | 294 | 14.5 | 32.2 | 0.00 | 0.00 | 0.00 | 69 | 1014.4 |
| 20260504003047 | 16 | 299 | 14.5 | 24.1 | 0.00 | 0.00 | 0.00 | 71 | 1014.3 |
| 20260504001554 | 15 | 355 | 14.5 | 25.7 | 0.00 | 0.00 | 0.00 | 71 | 1014.3 |
| 20260504000035 | 15 | 307 | 12.9 | 22.5 | 0.00 | 0.00 | 0.00 | 74 | 1014.4 |
| 20260503234534 | 14 | 294 | 11.3 | 20.9 | 0.00 | 0.00 | 0.00 | 75 | 1014.3 |
| 20260503233027 | 14 | 281 | 11.3 | 22.5 | 0.00 | 0.00 | 0.00 | 75 | 1014.3 |
| 20260503231531 | 13 | 307 | 12.9 | 24.1 | 0.00 | 0.00 | 0.00 | 76 | 1014.3 |
| 20260503230019 | 13 | 327 | 11.3 | 22.5 | 0.00 | 0.00 | 0.00 | 77 | 1014.2 |
| 20260503224515 | 12 | 309 | 8.0 | 19.3 | 0.00 | 0.00 | 0.00 | 79 | 1014.1 |
| 20260503223021 | 12 | 314 | 9.7 | 19.3 | 0.00 | 0.00 | 0.00 | 81 | 1014.0 |
| 20260503221507 | 11 | 344 | 9.7 | 17.7 | 0.00 | 0.00 | 0.00 | 82 | 1014.0 |
| 20260503220004 | 11 | 328 | 8.0 | 17.7 | 0.00 | 0.03 | 0.00 | 84 | 1014.0 |
| 20260503214559 | 10 | 302 | 6.4 | 17.7 | 0.00 | 0.03 | 0.00 | 85 | 1014.0 |
| 20260503213125 | 10 | 327 | 3.2 | 14.5 | 0.00 | 0.03 | 0.00 | 86 | 1013.9 |
| 20260503211618 | 10 | 348 | 4.8 | 9.7 | 0.00 | 0.03 | 0.00 | 86 | 1013.7 |
| 20260503210051 | 9 | 321 | 6.4 | 12.9 | 0.00 | 0.03 | 0.00 | 87 | 1013.5 |
| 20260503204603 | 9 | 333 | 4.8 | 12.9 | 0.00 | 0.20 | 0.00 | 87 | 1013.3 |
| 20260503203049 | 9 | 350 | 3.2 | 6.4 | 0.00 | 0.20 | 0.00 | 87 | 1013.2 |
| 20260503201547 | 9 | 342 | 1.6 | 6.4 | 0.00 | 0.20 | 0.00 | 86 | 1013.1 |
| 20260503200046 | 9 | 324 | 3.2 | 6.4 | 0.00 | 0.20 | 0.00 | 86 | 1013.0 |
| 20260503194544 | 10 | 318 | 3.2 | 6.4 | 0.00 | 0.56 | 0.00 | 85 | 1013.1 |
| 20260503193042 | 10 | 331 | 3.2 | 6.4 | 0.00 | 0.56 | 0.00 | 85 | 1013.0 |
| 20260503191555 | 10 | 325 | 3.2 | 8.0 | 0.00 | 0.56 | 0.00 | 84 | 1012.9 |
| 20260503190044 | 10 | 331 | 3.2 | 8.0 | 0.00 | 0.56 | 0.00 | 84 | 1012.8 |
| 20260503184541 | 10 | 327 | 4.8 | 8.0 | 0.00 | 0.76 | 0.00 | 83 | 1012.8 |
| 20260503183042 | 10 | 320 | 3.2 | 8.0 | 0.00 | 0.76 | 0.00 | 82 | 1012.8 |
| 20260503181535 | 11 | 325 | 4.8 | 8.0 | 0.00 | 0.76 | 0.00 | 82 | 1012.8 |
| 20260503180036 | 11 | 313 | 4.8 | 6.4 | 0.00 | 0.76 | 0.00 | 82 | 1012.8 |
| 20260503174544 | 11 | 320 | 4.8 | 9.7 | 0.00 | 0.76 | 0.00 | 81 | 1012.8 |
| 20260503173032 | 11 | 304 | 4.8 | 9.7 | 0.00 | 0.76 | 0.00 | 81 | 1012.7 |
| 20260503171534 | 11 | 302 | 4.8 | 12.9 | 0.00 | 0.76 | 0.00 | 80 | 1012.9 |
| 20260503081504 | 14 | 301 | 1.6 | 4.8 | 0.00 | 1.83 | 0.97 | 71 | 1013.3 |